ATLAS 5 CENTAUR DEB, 43991

Orbit data source: Space-Track

ATLAS 5 CENTAUR DEB, 43991 is space debris in HEO originally from a launch on Wed, 17 Sep 2014 UTC launched from the Air Force Eastern Test Range (AFETR). Debris objects in space refer to the collection of defunct objects orbiting the Earth. Examples of debris include non-operational satellites, rocket bodies, and fragments generated from explosions, collisions, or faulty payload assembly.

Loading next visibility...
Identifier
43991, 2014-055AW
Orbit
HEO
Country
Flag of USUS
Related business
Flag of USUnited Launch Alliance/Lockheed Martin (US)
Manufacturer
Unknown
Mission
Spacecraft
Bus & Motor
Unknown
Mass
Unknown
Launch date (UTC)
2014-09-17 (12 years ago)
Launch vehicle
Unknown
Launch site
Air Force Eastern Test Range (AFETR)
Object type
Payload
Rocket body
Debris
Shape & HBR
Unknown shape, 1.1 m
Radar Cross Section
Medium (>0.1 m² and <1 m²)

Expand to show TLE details & history
Last TLE update: 2 weeks ago

TLE from 2 weeks ago
0 ATLAS 5 CENTAUR DEB
1 43991U 14055AW  26243.39875249 -.00000020  00000-0  00000-0 0  9998
2 43991  19.6161 166.1635 4622476 128.1553 283.2121  1.82443660 52691
Epoch: 2026-08-31T09:34Z
TLE epoch observation values (Epoch: 2026-08-31T09:34:12.215Z)
Latitude
0.00004°
Longitude
42.97381°
Altitude
24,801.678 km
Speed
3.388 km/s
True Right ascension
11h 04m 25s
True Declination
0° 00' 00"
Sunlit
Object was in daylight at epoch
Visualization orbit readout
Latitude
Unknown
Longitude
Unknown
Altitude
Unknown
Speed
Unknown
Apparent Right ascension
Unknown
Apparent Declination
Unknown
Sunlit
N/A
Visualization observer readout
Local Sidereal Time
22:26:18
Azimuth
Unknown
Elevation
Unknown
Doppler factor
Unknown
Orbital elements
Apogee altitude
34,993.146 km
Perigee altitude
8,836.459 km
Semi-major axis
28,292.939 km
Eccentricity
0.46225
Inclination
19.6161°
RAAN
166.1635°
Arg. of periapsis
128.1553°
True anomaly
231.79934°
Mean anomaly
283.2121°
Eccentric anomaly
257.3683°
Mean motion
0.45606 °/min
Orbital period
789.36 mins
BSTAR
0
Loading maneuver chart data...
Computing Atmospheric mass density...

Documentation

Showing up to 5 results
|